Weather History for McCook, NE

Change the Weather History Date:

Sunday, December 14, 2014

  Actual Average Record
Temperature  
Mean Temperature 45 °F 28 °F  
Max Temperature 55 °F 41 °F 68 °F (1977)
Min Temperature 34 °F 15 °F -11 °F (1963)
Degree Days  
Heating Degree Days 20    
Moisture  
Dew Point 42 °F    
Average Humidity 88    
Maximum Humidity 97    
Minimum Humidity 71    
Precipitation  
Precipitation 0.82 in 0.02 in 0.82 in (2014)
Month to date precipitation 0.82 0.30  
Year to date precipitation 23.72 22.19  
Sea Level Pressure  
Sea Level Pressure 29.67 in    
Wind  
Wind Speed 11 mph (WNW)    
Max Wind Speed 25 mph    
Max Gust Speed 29 mph    
Visibility 6 miles    
Events Rain , Thunderstorm    
T = Trace of Precipitation, MM = Missing Value Source: NWS Daily Summary

Daily Weather History Graph

Daily Weather History Graph

Search for Another Location

Airport:

Trip Planner

Search our weather history database for the weather conditions in past years. The results will help you decide how hot, cold, wet, or windy it might be!

Date:

Astronomy

Dec. 14, 2014 Rise Set
Actual Time 7:57 AM CST 5:17 PM CST
Civil Twilight 7:26 AM CST 5:47 PM CST
Nautical Twilight 6:52 AM CST 6:21 PM CST
Astronomical Twilight 6:19 AM CST 6:54 PM CST
Moon 12:20 AM CST (12/14) 12:49 PM CST (12/14)
Length of Visible Light 10h 21m
Length of Day
9h 20m
Waning Gibbous, 48% of the Moon is Illuminated
Dec 14
Waning Gibbous
Dec 21
New
Dec 28
First Quarter
Jan 4
Full
Jan 13
Last Quarter

Hourly Weather History & Observations

Time (CST) Temp. Windchill Dew Point Humidity Pressure Visibility Wind Dir Wind Speed Gust Speed Precip Events Conditions
12:24 AM 53.1 °F - 50.0 °F 89% 29.71 in 6.0 mi South 15.0 mph 23.0 mph N/A   Scattered Clouds
12:53 AM 54.0 °F - 51.1 °F 90% 29.68 in 6.0 mi South 16.1 mph 25.3 mph N/A   Clear
1:53 AM 54.0 °F - 51.1 °F 90% 29.67 in 6.0 mi South 16.1 mph 24.2 mph N/A   Clear
2:53 AM 53.1 °F - 50.0 °F 89% 29.68 in 5.0 mi WSW 6.9 mph - N/A   Clear
3:08 AM 53.1 °F - 50.0 °F 89% 29.70 in 6.0 mi SSW 9.2 mph - N/A   Mostly Cloudy
3:53 AM 53.1 °F - 50.0 °F 89% 29.68 in 5.0 mi SSW 6.9 mph - N/A   Overcast
4:53 AM 52.0 °F - 48.9 °F 89% 29.68 in 5.0 mi South 5.8 mph - N/A   Overcast
5:53 AM 53.1 °F - 50.0 °F 89% 29.67 in 5.0 mi SW 8.1 mph - N/A   Overcast
6:25 AM 53.1 °F - 50.0 °F 89% 29.69 in 5.0 mi SW 4.6 mph - N/A   Overcast
6:53 AM 52.0 °F - 48.9 °F 89% 29.68 in 5.0 mi SW 3.5 mph - N/A   Overcast
7:53 AM 50.0 °F - 46.0 °F 86% 29.69 in 6.0 mi West 6.9 mph - N/A   Overcast
8:53 AM 46.9 °F - 39.9 °F 77% 29.70 in 10.0 mi West 4.6 mph - N/A   Overcast
9:26 AM 46.0 °F 43.1 °F 39.9 °F 79% 29.71 in 10.0 mi West 5.8 mph - N/A   Overcast
9:53 AM 46.0 °F 43.9 °F 39.9 °F 79% 29.70 in 10.0 mi WSW 4.6 mph - N/A   Overcast
10:11 AM 45.0 °F 41.2 °F 39.0 °F 80% 29.70 in 10.0 mi WSW 6.9 mph - N/A   Overcast
10:35 AM 45.0 °F 41.2 °F 37.9 °F 76% 29.70 in 10.0 mi SW 6.9 mph - N/A   Overcast
10:53 AM 44.1 °F 39.5 °F 37.0 °F 76% 29.71 in 10.0 mi West 8.1 mph - N/A   Overcast
11:53 AM 48.0 °F - 39.0 °F 71% 29.68 in 10.0 mi NW 5.8 mph - N/A   Mostly Cloudy
12:14 PM 48.9 °F - 41.0 °F 74% 29.67 in 10.0 mi WNW 5.8 mph - N/A   Overcast
12:22 PM 48.9 °F - 42.1 °F 77% 29.67 in 2.5 mi Calm Calm - 0.01 in Rain Rain
12:40 PM 46.9 °F - 43.0 °F 86% 29.65 in 1.5 mi West 9.2 mph - 0.05 in Rain Light Rain
12:47 PM 46.4 °F 41.9 °F 44.6 °F 93% 29.65 in 2.5 mi West 9.2 mph - 0.06 in Rain Rain
12:53 PM 46.9 °F - 44.1 °F 90% 29.64 in 2.0 mi West 9.2 mph - 0.07 in Rain Rain
1:07 PM 46.0 °F 42.5 °F 44.1 °F 93% 29.65 in 1.8 mi SSW 6.9 mph - 0.04 in Rain , Thunderstorm Rain
1:16 PM 45.0 °F 43.5 °F 44.1 °F 97% 29.66 in 0.8 mi South 3.5 mph - 0.12 in Rain , Thunderstorm Heavy Rain
1:23 PM 45.0 °F 40.1 °F 44.1 °F 97% 29.66 in 1.0 mi West 9.2 mph - 0.15 in Rain Heavy Rain
1:39 PM 45.0 °F 39.7 °F 44.1 °F 97% 29.67 in 1.0 mi SW 10.4 mph 16.1 mph 0.27 in Rain Heavy Rain
1:53 PM 45.0 °F 39.3 °F 44.1 °F 97% 29.65 in 1.2 mi West 11.5 mph - 0.35 in Rain Heavy Rain
2:16 PM 44.1 °F 36.5 °F 42.1 °F 93% 29.63 in 2.5 mi WNW 17.3 mph - 0.07 in Rain Rain
2:25 PM 43.0 °F 35.4 °F 42.1 °F 97% 29.62 in 4.0 mi WNW 16.1 mph - 0.07 in Rain Light Rain
2:53 PM 45.0 °F 38.5 °F 43.0 °F 93% 29.61 in 4.0 mi NW 13.8 mph - 0.08 in Rain Light Rain
3:33 PM 46.0 °F 38.5 °F 44.1 °F 93% 29.61 in 2.5 mi NNW 19.6 mph - 0.04 in Rain Rain
3:46 PM 44.1 °F 35.2 °F 42.1 °F 93% 29.60 in 1.8 mi NNW 23.0 mph - 0.09 in Rain Rain
3:53 PM 44.1 °F 35.9 °F 42.1 °F 93% 29.61 in 2.0 mi NNW 19.6 mph - 0.11 in Rain Heavy Rain
4:07 PM 43.0 °F 34.5 °F 41.0 °F 93% 29.61 in 1.8 mi North 19.6 mph - 0.05 in Rain Heavy Rain
4:18 PM 42.1 °F 33.6 °F 41.0 °F 96% 29.63 in 2.0 mi North 18.4 mph - 0.09 in Rain Heavy Rain
4:25 PM 43.0 °F 36.4 °F 41.0 °F 93% 29.68 in 1.8 mi SSE 12.7 mph 19.6 mph 0.14 in Rain Heavy Rain
4:38 PM 46.0 °F 40.6 °F 39.0 °F 76% 29.66 in 3.0 mi NW 11.5 mph - 0.20 in Rain Light Rain
4:46 PM 44.1 °F 38.1 °F 39.9 °F 85% 29.65 in 6.0 mi NW 11.5 mph - 0.20 in Rain Light Rain
4:53 PM 43.0 °F 36.0 °F 39.9 °F 89% 29.66 in 9.0 mi NW 13.8 mph - 0.20 in Rain Light Rain
5:53 PM 39.9 °F 31.4 °F 37.9 °F 93% 29.65 in 10.0 mi NW 16.1 mph - 0.01 in   Overcast
6:36 PM 37.9 °F 30.0 °F 36.0 °F 93% 29.67 in 10.0 mi North 12.7 mph - N/A   Scattered Clouds
6:53 PM 37.9 °F 31.5 °F 36.0 °F 93% 29.69 in 10.0 mi North 9.2 mph - N/A   Mostly Cloudy
7:53 PM 39.0 °F 29.9 °F 37.0 °F 93% 29.70 in 10.0 mi North 17.3 mph - N/A   Overcast
8:53 PM 37.9 °F 27.9 °F 35.1 °F 89% 29.71 in 10.0 mi North 19.6 mph - N/A   Overcast
9:53 PM 36.0 °F 23.9 °F 33.1 °F 89% 29.74 in 10.0 mi North 25.3 mph 28.8 mph N/A   Overcast
10:53 PM 35.1 °F 24.1 °F 32.0 °F 89% 29.76 in 10.0 mi North 19.6 mph 26.5 mph N/A   Overcast
11:13 PM 35.1 °F 23.5 °F 32.0 °F 89% 29.72 in 10.0 mi North 21.9 mph 27.6 mph N/A   Overcast
11:53 PM 34.0 °F 23.8 °F 30.9 °F 89% 29.78 in 10.0 mi North 16.1 mph 27.6 mph N/A   Overcast